This demonstration page uses our WeatherBlox Daily Observations layout. Learn more.

Left ArrowRight Arrow

41.55636, -103.73856

Hourly Observations for June 13, 2019

Temp ( °F °C ) Dew Point ( °F °C ) Humidity (%) Winds ( mph kmh ) Pressure ( in mb ) Visibility ( mi km ) Precip ( " mm )
12:58 am 00:58 Clear 66 19.1 38 3.6 36 36 NE 3 6 30.11 1020 10 16 N/A
1:58 am 01:58 Clear 64 17.9 40 4.5 41 41 N N/A 30.11 1020 10 16 N/A
2:58 am 02:58 Clear 59 15 41 5.1 52 52 S 5 7 30.10 1019 10 16 N/A
3:58 am 03:58 Clear 54 12.4 42 5.4 63 63 S 8 13 30.11 1020 10 16 N/A
4:58 am 04:58 Clear 50 10.1 42 5.8 75 75 SSW 9 15 30.10 1019 10 16 N/A
5:58 am 05:58 Clear 50 9.8 42 5.5 75 75 SSW 10 17 30.07 1018 10 16 N/A
6:58 am 06:58 Clear 47 8.3 41 5 80 80 SSW 10 17 30.06 1018 10 16 N/A
7:58 am 07:58 Clear 46 8 40 4.6 79 79 S 12 19 30.05 1018 10 16 N/A
8:58 am 08:58 Clear 46 8 40 4.5 79 79 SSW 10 17 30.02 1017 10 16 N/A
9:58 am 09:58 Clear 46 7.8 40 4.4 79 79 SSW 10 17 29.99 1016 10 16 N/A
10:58 am 10:58 Clear 47 8.4 40 4.5 77 77 SSW 13 20 29.97 1015 10 16 N/A
11:58 am 11:58 Sunny 47 8.2 40 4.7 79 79 SSW 12 19 29.97 1015 10 16 N/A
12:58 pm 12:58 Sunny 51 10.4 42 5.8 73 73 SSW 14 22 29.95 1014 10 16 N/A
1:58 pm 13:58 Partly Cloudy 57 13.7 45 7 64 64 SSW 15 24 29.92 1013 10 16 N/A
2:58 pm 14:58 Sunny 64 17.9 48 9 56 56 SW 14 22 29.90 1013 10 16 N/A
3:56 pm 15:56 Mostly Cloudy 67 19.3 50 10 55 55 SW 14 22 29.91 1013 10 16 N/A
4:56 pm 16:56 Mostly Cloudy 70 21.2 48 8.8 45 45 SSW 9 15 29.89 1012 10 16 N/A
5:56 pm 17:56 Partly Cloudy 74 23.6 43 6.3 33 33 WSW 5 7 29.87 1011 10 16 N/A
6:58 pm 18:58 Mostly Sunny 77 25.2 45 7.4 32 32 WNW 6 9 29.84 1010 10 16 N/A
7:58 pm 19:58 Partly Cloudy 71 21.7 46 7.7 41 41 WSW 24 39 29.87 1011 10 16 N/A
8:58 pm 20:58 Mostly Sunny 72 22.2 53 11.7 52 52 ESE 8 13 29.84 1010 10 16 0.08 2.03
9:58 pm 21:58 Sunny 75 24 52 11.2 45 45 SE 12 19 29.80 1009 10 16 N/A

Powered by AerisWeather